NOAA 17 DEB

Satellite information

Favourite Embed

Satellite Type and Status

DEBRISIN ORBIT

Key statistics

Satellite NOAA 17 DEB at a glance.

Uptime

8515

Days in orbit

Revolutions

≈ 13.6

Per day

Orbit

SSO

Sun Synchronous Orbit

Inclination

98.4

Latest

Satellite identification and parameters

Extended collection of information and parameters for NOAA 17 DEB.

Object identification

Identified? True

Debris? True

Object name: NOAA 17 DEB

International designator: 2002-032BC

Object number (NORAD): 48719

Object ID (CCSDS): 48719

Country: UNITED STATES OF AMERICA (US)

Current information (Y/N): Y

RCS size: SMALL

Orbital parameters

Period: 105.498 minutes

Inclination: 98.4149 deg

SMA: 7395.892 km

Apoapsis: 1256.839 km

Periapsis: 778.675 km

RAAN: 28.3024 deg

Eccentricy: 0.03232636

Argument of periapsis: 69.6028 deg

Mean anomaly: 293.9526 deg

Mean motion: 13.64950598 rev/day

Mean motion (dot): 0.00000695 rev/day2

B* drag term: 0.00063084985 1/REarth

Two-line elements (TLE)

Creation date: Oct. 16, 2025, 2:37 a.m.

Reference frame: TEME

Reference center: EARTH

Epoch: Oct. 15, 2025, 5:34 p.m. UTC

TLE line 0: 0 NOAA 17 DEB

TLE line 1: 1 48719U 02032BC 25288.73241210 .00000695 00000-0 63085-3 0 9996

TLE line 2: 2 48719 98.4149 28.3024 0323264 69.6028 293.9526 13.64950598228026

Live tracking on map

Real-time ground track for satellite NOAA 17 DEB.

In-orbit conjunctions

A list of the most updated potential collisions computed for object NOAA 17 DEB.

Target Orbit TCA Probability of collision Miss distance Type
METEOR 2-6 DEB LEO 2024-11-10 16:25:15 0.0001215685 250.0 (m) DEBRIS

Associated space launch

NOAA M carried weather imagers and microwave and infrared sounders, as well as a SARSAT search-and-rescue package. It had an on-orbit mass of 1475 kg.

NOAA 17 DEB was lifted into orbit during the mission ‘Titan II SLV | NOAA 17’, on board a Titan II SLV space rocket.

The launch took place on June 24, 2002, 6:23 p.m. from Space Launch Complex 4W.

For more information about the launch, click the button.

Launch to space Titan II SLV | NOAA 17
Titan II SLV | NOAA 17

Agency: N/A

Status: Launch Successful

Launch date: June 24, 2002, 6:23 p.m. UTC

Rocket: Titan II SLV

Launch pad: Space Launch Complex 4W

Location: Vandenberg SFB, CA, USA

...

Latest news about this satellite

There are no fresh news available about this satellite. Check back as we update our databases every day.


Newsletter sign-up

Weekly statistics, charts and insights to help you stay on top of the space industry.